Home   Weather   Crailsheim   Past weeks

Flag for Germany Past Weather in Crailsheim, Baden-Württemberg, Germany — Yesterday and Last 2 Weeks

39 °F

Mostly cloudy.

Feels Like: 39 °F
Forecast: 38 / 49 °F
Wind: 2 mph from North

Location: Niederstetten

Current Time: Oct 21, 2016 at 2:43:43 AM

Latest Report: Oct 21, 2016 at 1:20 AM

Visibility: N/A

Pressure: 29.86 "Hg

Humidity: 93%

Dew Point: 37 °F

Location of CrailsheimLocation

Past Weather in Crailsheim — Graph


Crailsheim Temperature Yesterday

Maximum temperature yesterday: 43 °F (at 6:20 AM)
Minimum temperature yesterday: 41 °F (at 12:20 AM)
Average temperature yesterday: 42 °F

High & Low Weather Summary for the Past Weeks

High66 °F (Oct 16, 2:20 PM)100% (Oct 6, 7:00 PM)30.24 "Hg (Oct 6, 7:00 PM)
Low36 °F (Oct 9, 3:20 AM)46% (Oct 16, 3:20 PM)29.68 "Hg (Oct 14, 6:20 PM)
Average46 °F87%30.06 "Hg
* Reported Oct 6 1:20 AM — Oct 21 1:20 AM, Crailsheim, Weather by CustomWeather, © 2016

Note: Actual official high and low records may vary slightly from our data, if they occured in-between our weather recording intervals... More about our weather records


Crailsheim Weather History for the Previous 24 Hours

Scroll right to see more
Time TempWeatherWind HumidityBarometerVisibility
1:20 AM
Fri, Oct 21
39 °FMostly cloudy.2 mph93%29.86 "HgN/A
12:20 AM39 °FRain. Fog.3 mph100%29.86 "Hg2 mi
11:20 PM
Thu, Oct 20
41 °FRain. Fog.5 mph100%29.86 "Hg2 mi
10:20 PM41 °FRain. Fog.2 mph100%29.86 "Hg2 mi
9:20 PM41 °FRain. Low clouds.3 mph100%29.89 "Hg4 mi
8:20 PM41 °FLight rain. Passing clouds.6 mph93%29.89 "Hg5 mi
7:20 PM41 °FRain. Fog.3 mph100%29.89 "Hg3 mi
6:20 PM41 °FRain. Fog.2 mph100%29.89 "Hg3 mi
5:20 PM43 °FLight rain. Low clouds.2 mph87%29.89 "HgN/A
4:20 PM43 °FLight rain. Partly sunny.6 mph93%29.89 "Hg5 mi
3:20 PM43 °FLight rain. More clouds than sun.9 mph93%29.89 "HgN/A
2:20 PM43 °FRain. More clouds than sun.10 mph100%29.89 "Hg6 mi
1:20 PM43 °FRain. More clouds than sun.12 mph93%29.89 "Hg6 mi
12:20 PM43 °FLight rain. Broken clouds.15 mph93%29.92 "HgN/A
11:20 AM43 °FRain. Mostly cloudy.10 mph93%29.92 "Hg5 mi
11:00 AM43 °FRain. Mostly cloudy.8 mph93%29.92 "Hg4 mi
10:20 AM43 °FRain. Mostly cloudy.8 mph93%29.92 "Hg5 mi
9:50 AM43 °FRain. Mostly cloudy.12 mph93%29.95 "Hg6 mi
9:20 AM43 °FLight rain. Mostly cloudy.10 mph93%29.95 "Hg4 mi
8:20 AM43 °FPartly sunny.8 mph93%29.92 "HgN/A
7:20 AM43 °FPassing clouds.8 mph93%29.92 "Hg5 mi
6:20 AM43 °FLow clouds.6 mph93%29.95 "Hg4 mi
4:20 AM41 °FLow clouds.5 mph100%29.95 "Hg5 mi
3:20 AM41 °FPassing clouds.6 mph93%29.95 "HgN/A
2:20 AM41 °FOvercast.6 mph93%29.98 "HgN/A
Weather by CustomWeather, © 2016

See weather overviewHow to use our weather pages